Time,TemperatureF,DewpointF,PressureIn,WindDirection,WindDirectionDegrees,WindSpeedMPH,WindSpeedGustMPH,Humidity,HourlyPrecipIn,Conditions,Clouds,dailyrainin,SoftwareType,DateUTC
2013-02-02 00:01:00,48.0,37.0,30.33,North,358,0.0,1.0,66,0.00,,,0.00,,2013-02-02 08:01:00,
2013-02-02 00:11:00,48.0,37.0,30.33,North,358,0.0,1.0,66,0.00,,,0.00,,2013-02-02 08:11:00,
2013-02-02 00:21:00,48.0,37.0,30.33,WNW,302,1.0,2.0,65,0.00,,,0.00,,2013-02-02 08:21:00,
2013-02-02 00:31:00,48.0,37.0,30.32,NNW,335,1.0,1.0,65,0.00,,,0.00,,2013-02-02 08:31:00,
2013-02-02 00:41:00,48.0,37.0,30.32,NNW,335,1.0,1.0,65,0.00,,,0.00,,2013-02-02 08:41:00,
2013-02-02 00:52:00,48.0,37.0,30.33,NNW,347,1.0,2.0,65,0.00,,,0.00,,2013-02-02 08:52:00,
2013-02-02 01:01:00,48.0,37.0,30.32,North,353,1.0,2.0,65,0.00,,,0.00,,2013-02-02 09:01:00,
2013-02-02 01:11:00,48.0,37.0,30.32,North,353,1.0,2.0,65,0.00,,,0.00,,2013-02-02 09:11:00,
2013-02-02 01:22:00,48.0,37.0,30.32,North,355,0.0,1.0,65,0.00,,,0.00,,2013-02-02 09:22:00,
2013-02-02 01:31:00,48.0,37.0,30.32,North,355,0.0,1.0,65,0.00,,,0.00,,2013-02-02 09:31:00,
2013-02-02 01:41:00,48.0,37.0,30.32,North,355,0.0,1.0,65,0.00,,,0.00,,2013-02-02 09:41:00,
2013-02-02 01:52:00,47.0,36.0,30.32,North,355,0.0,1.0,66,0.00,,,0.00,,2013-02-02 09:52:00,
2013-02-02 02:01:00,47.0,36.0,30.32,North,354,0.0,1.0,66,0.00,,,0.00,,2013-02-02 10:01:00,
2013-02-02 02:11:00,47.0,36.0,30.32,North,354,0.0,1.0,66,0.00,,,0.00,,2013-02-02 10:11:00,
2013-02-02 02:21:00,48.0,37.0,30.32,North,354,1.0,1.0,66,0.00,,,0.00,,2013-02-02 10:21:00,
2013-02-02 02:31:00,48.0,37.0,30.32,North,354,1.0,1.0,66,0.00,,,0.00,,2013-02-02 10:31:00,
2013-02-02 02:41:00,48.0,37.0,30.32,North,354,1.0,1.0,66,0.00,,,0.00,,2013-02-02 10:41:00,
2013-02-02 02:51:00,47.0,36.0,30.32,North,354,0.0,1.0,66,0.00,,,0.00,,2013-02-02 10:51:00,
2013-02-02 03:01:00,47.0,37.0,30.33,North,351,0.0,1.0,67,0.00,,,0.00,,2013-02-02 11:01:00,
2013-02-02 03:11:00,47.0,37.0,30.33,North,351,0.0,1.0,67,0.00,,,0.00,,2013-02-02 11:11:00,
2013-02-02 03:21:00,47.0,37.0,30.33,North,352,0.0,1.0,67,0.00,,,0.00,,2013-02-02 11:21:00,
2013-02-02 03:31:00,47.0,37.0,30.33,North,352,0.0,1.0,67,0.00,,,0.00,,2013-02-02 11:31:00,
2013-02-02 03:41:00,47.0,37.0,30.33,North,352,0.0,1.0,67,0.00,,,0.00,,2013-02-02 11:41:00,
2013-02-02 03:52:00,47.0,37.0,30.32,North,349,0.0,1.0,68,0.00,,,0.00,,2013-02-02 11:52:00,
2013-02-02 04:01:00,47.0,37.0,30.32,NNW,345,0.0,0.0,67,0.00,,,0.00,,2013-02-02 12:01:00,
2013-02-02 04:11:00,47.0,37.0,30.32,NNW,345,0.0,0.0,67,0.00,,,0.00,,2013-02-02 12:11:00,
2013-02-02 04:22:00,47.0,37.0,30.32,NNW,345,0.0,1.0,67,0.00,,,0.00,,2013-02-02 12:22:00,
2013-02-02 04:32:00,47.0,37.0,30.32,NNW,344,0.0,1.0,68,0.00,,,0.00,,2013-02-02 12:32:00,
2013-02-02 04:42:00,47.0,37.0,30.32,NNW,344,0.0,1.0,68,0.00,,,0.00,,2013-02-02 12:42:00,
2013-02-02 04:52:00,48.0,38.0,30.32,NNW,344,0.0,1.0,67,0.00,,,0.00,,2013-02-02 12:52:00,
2013-02-02 05:02:00,48.0,38.0,30.32,NNW,344,0.0,1.0,67,0.00,,,0.00,,2013-02-02 13:02:00,
2013-02-02 05:11:00,48.0,38.0,30.32,NNW,344,0.0,1.0,67,0.00,,,0.00,,2013-02-02 13:11:00,
2013-02-02 05:21:00,48.0,38.0,30.32,NNW,345,0.0,0.0,67,0.00,,,0.00,,2013-02-02 13:21:00,
2013-02-02 05:32:00,48.0,37.0,30.32,NNW,344,0.0,0.0,66,0.00,,,0.00,,2013-02-02 13:32:00,
2013-02-02 05:42:00,48.0,37.0,30.32,NNW,344,0.0,0.0,66,0.00,,,0.00,,2013-02-02 13:42:00,
2013-02-02 05:51:00,48.0,38.0,30.32,NNW,345,0.0,1.0,67,0.00,,,0.00,,2013-02-02 13:51:00,
2013-02-02 06:02:00,49.0,38.0,30.32,NNE,12,0.0,0.0,66,0.00,,,0.00,,2013-02-02 14:02:00,
2013-02-02 06:11:00,49.0,38.0,30.32,NNE,12,0.0,0.0,66,0.00,,,0.00,,2013-02-02 14:11:00,
2013-02-02 06:22:00,49.0,38.0,30.32,North,5,0.0,0.0,65,0.00,,,0.00,,2013-02-02 14:22:00,
2013-02-02 06:32:00,49.0,38.0,30.32,North,5,0.0,0.0,66,0.00,,,0.00,,2013-02-02 14:32:00,
2013-02-02 06:42:00,49.0,38.0,30.32,North,5,0.0,0.0,66,0.00,,,0.00,,2013-02-02 14:42:00,
2013-02-02 06:52:00,49.0,38.0,30.33,North,5,0.0,0.0,65,0.00,,,0.00,,2013-02-02 14:52:00,
2013-02-02 07:02:00,49.0,39.0,30.33,NW,325,0.0,0.0,67,0.00,,,0.00,,2013-02-02 15:02:00,
2013-02-02 07:12:00,49.0,39.0,30.33,NW,325,0.0,0.0,67,0.00,,,0.00,,2013-02-02 15:12:00,
2013-02-02 07:21:00,49.0,38.0,30.33,North,356,0.0,0.0,66,0.00,,,0.00,,2013-02-02 15:21:00,
2013-02-02 07:32:00,49.0,38.0,30.33,North,356,0.0,0.0,66,0.00,,,0.00,,2013-02-02 15:32:00,
2013-02-02 07:42:00,49.0,38.0,30.33,North,356,0.0,0.0,66,0.00,,,0.00,,2013-02-02 15:42:00,
2013-02-02 07:51:00,49.0,39.0,30.34,North,356,0.0,0.0,67,0.00,,,0.00,,2013-02-02 15:51:00,
2013-02-02 08:02:00,50.0,39.0,30.34,North,356,0.0,0.0,65,0.00,,,0.00,,2013-02-02 16:02:00,
2013-02-02 08:11:00,50.0,39.0,30.34,North,356,0.0,0.0,65,0.00,,,0.00,,2013-02-02 16:11:00,
2013-02-02 08:22:00,50.0,39.0,30.33,NW,324,0.0,0.0,66,0.00,,,0.00,,2013-02-02 16:22:00,
2013-02-02 08:31:00,51.0,40.0,30.34,North,354,0.0,0.0,65,0.00,,,0.00,,2013-02-02 16:31:00,
2013-02-02 08:42:00,51.0,40.0,30.34,North,354,0.0,0.0,65,0.00,,,0.00,,2013-02-02 16:42:00,
2013-02-02 08:51:00,52.0,40.0,30.34,NNW,339,0.0,0.0,64,0.00,,,0.00,,2013-02-02 16:51:00,
2013-02-02 09:02:00,53.0,41.0,30.35,NNW,338,0.0,0.0,63,0.00,,,0.00,,2013-02-02 17:02:00,
2013-02-02 09:11:00,53.0,41.0,30.35,NNW,338,0.0,0.0,63,0.00,,,0.00,,2013-02-02 17:11:00,
2013-02-02 09:21:00,55.0,43.0,30.35,NNW,338,0.0,0.0,63,0.00,,,0.00,,2013-02-02 17:21:00,
2013-02-02 09:32:00,56.0,42.0,30.35,North,4,0.0,1.0,60,0.00,,,0.00,,2013-02-02 17:32:00,
2013-02-02 09:41:00,56.0,42.0,30.35,North,4,0.0,1.0,60,0.00,,,0.00,,2013-02-02 17:41:00,
2013-02-02 09:52:00,58.0,45.0,30.35,North,356,0.0,0.0,61,0.00,,,0.00,,2013-02-02 17:52:00,
2013-02-02 10:02:00,59.0,45.0,30.35,North,357,0.0,0.0,59,0.00,,,0.00,,2013-02-02 18:02:00,
2013-02-02 10:11:00,59.0,45.0,30.35,North,357,0.0,0.0,59,0.00,,,0.00,,2013-02-02 18:11:00,
2013-02-02 10:21:00,61.0,46.0,30.35,North,357,0.0,0.0,57,0.00,,,0.00,,2013-02-02 18:21:00,
2013-02-02 10:31:00,63.0,47.0,30.35,SSE,162,0.0,1.0,56,0.00,,,0.00,,2013-02-02 18:31:00,
2013-02-02 10:41:00,63.0,47.0,30.35,SSE,162,0.0,1.0,56,0.00,,,0.00,,2013-02-02 18:41:00,
2013-02-02 10:52:00,63.0,46.0,30.35,SSE,160,0.0,0.0,54,0.00,,,0.00,,2013-02-02 18:52:00,
2013-02-02 11:01:00,64.0,45.0,30.35,SSE,160,0.0,0.0,51,0.00,,,0.00,,2013-02-02 19:01:00,
2013-02-02 11:21:00,63.0,42.0,30.35,SE,139,0.0,2.0,47,0.00,,,0.00,,2013-02-02 19:21:00,
2013-02-02 11:32:00,62.0,42.0,30.35,SSE,166,0.0,2.0,47,0.00,,,0.00,,2013-02-02 19:32:00,
2013-02-02 11:41:00,62.0,42.0,30.35,SSE,166,0.0,2.0,47,0.00,,,0.00,,2013-02-02 19:41:00,
2013-02-02 11:51:00,62.0,40.0,30.35,SSW,205,0.0,2.0,45,0.00,,,0.00,,2013-02-02 19:51:00,
2013-02-02 12:01:00,62.0,42.0,30.34,SSW,203,0.0,1.0,47,0.00,,,0.00,,2013-02-02 20:01:00,
2013-02-02 12:11:00,62.0,42.0,30.34,SSW,203,0.0,1.0,47,0.00,,,0.00,,2013-02-02 20:11:00,
2013-02-02 12:21:00,61.0,42.0,30.34,SSE,153,0.0,1.0,49,0.00,,,0.00,,2013-02-02 20:21:00,
2013-02-02 12:32:00,62.0,42.0,30.33,SSE,153,0.0,1.0,48,0.00,,,0.00,,2013-02-02 20:32:00,
2013-02-02 12:41:00,62.0,42.0,30.33,SSE,153,0.0,1.0,48,0.00,,,0.00,,2013-02-02 20:41:00,
2013-02-02 12:52:00,63.0,42.0,30.32,SE,136,0.0,1.0,46,0.00,,,0.00,,2013-02-02 20:52:00,
2013-02-02 13:01:00,64.0,42.0,30.31,South,184,0.0,0.0,44,0.00,,,0.00,,2013-02-02 21:01:00,
2013-02-02 13:11:00,64.0,42.0,30.31,South,184,0.0,0.0,44,0.00,,,0.00,,2013-02-02 21:11:00,
2013-02-02 13:21:00,67.0,42.0,30.30,SW,218,0.0,1.0,40,0.00,,,0.00,,2013-02-02 21:21:00,
2013-02-02 13:32:00,69.0,43.0,30.29,SW,218,0.0,1.0,39,0.00,,,0.00,,2013-02-02 21:32:00,
2013-02-02 13:42:00,69.0,43.0,30.29,SW,218,0.0,1.0,39,0.00,,,0.00,,2013-02-02 21:42:00,
2013-02-02 13:51:00,70.0,40.0,30.28,SSW,197,0.0,1.0,34,0.00,,,0.00,,2013-02-02 21:51:00,
2013-02-02 14:02:00,70.0,42.0,30.28,SSW,197,0.0,0.0,36,0.00,,,0.00,,2013-02-02 22:02:00,
2013-02-02 14:11:00,70.0,42.0,30.28,SSW,197,0.0,0.0,36,0.00,,,0.00,,2013-02-02 22:11:00,
2013-02-02 14:21:00,69.0,47.0,30.28,SE,146,0.0,1.0,45,0.00,,,0.00,,2013-02-02 22:21:00,
2013-02-02 14:32:00,66.0,48.0,30.28,ESE,120,0.0,2.0,53,0.00,,,0.00,,2013-02-02 22:32:00,
2013-02-02 14:41:00,66.0,48.0,30.28,ESE,120,0.0,2.0,53,0.00,,,0.00,,2013-02-02 22:41:00,
2013-02-02 14:51:00,64.0,46.0,30.29,SE,124,1.0,3.0,52,0.00,,,0.00,,2013-02-02 22:51:00,
2013-02-02 15:01:00,62.0,45.0,30.29,East,100,0.0,3.0,53,0.00,,,0.00,,2013-02-02 23:01:00,
2013-02-02 15:11:00,62.0,45.0,30.29,East,100,0.0,3.0,53,0.00,,,0.00,,2013-02-02 23:11:00,
2013-02-02 15:21:00,62.0,44.0,30.29,SSE,162,0.0,2.0,52,0.00,,,0.00,,2013-02-02 23:21:00,
2013-02-02 15:32:00,63.0,45.0,30.29,SSE,160,0.0,1.0,51,0.00,,,0.00,,2013-02-02 23:32:00,
2013-02-02 15:41:00,63.0,45.0,30.29,SSE,160,0.0,1.0,51,0.00,,,0.00,,2013-02-02 23:41:00,
2013-02-02 15:52:00,63.0,45.0,30.29,SSE,159,0.0,1.0,51,0.00,,,0.00,,2013-02-02 23:52:00,
2013-02-02 16:01:00,63.0,46.0,30.29,SSE,159,0.0,0.0,53,0.00,,,0.00,,2013-02-03 00:01:00,
2013-02-02 16:11:00,63.0,46.0,30.29,SSE,159,0.0,0.0,53,0.00,,,0.00,,2013-02-03 00:11:00,
2013-02-02 16:21:00,63.0,46.0,30.29,SSE,159,0.0,0.0,53,0.00,,,0.00,,2013-02-03 00:21:00,
2013-02-02 16:31:00,63.0,46.0,30.29,SSE,159,0.0,0.0,54,0.00,,,0.00,,2013-02-03 00:31:00,
2013-02-02 16:42:00,63.0,46.0,30.29,SSE,159,0.0,0.0,54,0.00,,,0.00,,2013-02-03 00:42:00,
2013-02-02 16:52:00,63.0,46.0,30.29,SSE,159,0.0,0.0,54,0.00,,,0.00,,2013-02-03 00:52:00,
2013-02-02 17:02:00,60.0,47.0,30.30,SSE,156,0.0,2.0,61,0.00,,,0.00,,2013-02-03 01:02:00,
2013-02-02 17:11:00,60.0,47.0,30.30,SSE,156,0.0,2.0,61,0.00,,,0.00,,2013-02-03 01:11:00,
2013-02-02 17:21:00,60.0,47.0,30.30,SSE,156,0.0,2.0,61,0.00,,,0.00,,2013-02-03 01:21:00,
2013-02-02 17:32:00,58.0,46.0,30.31,SSE,156,0.0,0.0,65,0.00,,,0.00,,2013-02-03 01:32:00,
2013-02-02 17:42:00,58.0,46.0,30.31,SSE,156,0.0,0.0,65,0.00,,,0.00,,2013-02-03 01:42:00,
2013-02-02 17:52:00,58.0,47.0,30.31,SSE,156,0.0,0.0,68,0.00,,,0.00,,2013-02-03 01:52:00,
2013-02-02 18:01:00,57.0,47.0,30.31,SSE,156,0.0,0.0,69,0.00,,,0.00,,2013-02-03 02:01:00,
2013-02-02 18:11:00,57.0,47.0,30.31,SSE,156,0.0,0.0,69,0.00,,,0.00,,2013-02-03 02:11:00,
2013-02-02 18:21:00,57.0,47.0,30.30,SSW,207,0.0,0.0,69,0.00,,,0.00,,2013-02-03 02:21:00,
2013-02-02 18:31:00,56.0,46.0,30.31,SSW,207,0.0,0.0,70,0.00,,,0.00,,2013-02-03 02:31:00,
2013-02-02 18:41:00,56.0,46.0,30.31,SSW,207,0.0,0.0,70,0.00,,,0.00,,2013-02-03 02:41:00,
2013-02-02 18:52:00,56.0,46.0,30.31,SSW,207,0.0,0.0,70,0.00,,,0.00,,2013-02-03 02:52:00,
2013-02-02 19:01:00,56.0,46.0,30.31,SSW,207,0.0,0.0,69,0.00,,,0.00,,2013-02-03 03:01:00,
2013-02-02 19:11:00,56.0,46.0,30.31,SSW,207,0.0,0.0,69,0.00,,,0.00,,2013-02-03 03:11:00,
2013-02-02 19:21:00,55.0,45.0,30.31,SSW,207,0.0,0.0,70,0.00,,,0.00,,2013-02-03 03:21:00,
2013-02-02 19:31:00,55.0,46.0,30.32,SSW,207,0.0,0.0,71,0.00,,,0.00,,2013-02-03 03:31:00,
2013-02-02 19:41:00,55.0,46.0,30.32,SSW,207,0.0,0.0,71,0.00,,,0.00,,2013-02-03 03:41:00,
2013-02-02 19:51:00,55.0,45.0,30.31,SSW,207,0.0,0.0,70,0.00,,,0.00,,2013-02-03 03:51:00,
2013-02-02 20:01:00,55.0,45.0,30.31,SSW,206,0.0,0.0,69,0.00,,,0.00,,2013-02-03 04:01:00,
2013-02-02 20:11:00,55.0,45.0,30.31,SSW,206,0.0,0.0,69,0.00,,,0.00,,2013-02-03 04:11:00,
2013-02-02 20:21:00,55.0,45.0,30.32,SSW,207,0.0,0.0,69,0.00,,,0.00,,2013-02-03 04:21:00,
2013-02-02 20:31:00,55.0,45.0,30.32,SSW,207,0.0,0.0,69,0.00,,,0.00,,2013-02-03 04:31:00,
2013-02-02 20:42:00,55.0,45.0,30.32,SSW,207,0.0,0.0,69,0.00,,,0.00,,2013-02-03 04:42:00,
2013-02-02 20:51:00,54.0,44.0,30.32,SSW,207,0.0,0.0,70,0.00,,,0.00,,2013-02-03 04:51:00,
2013-02-02 21:03:00,54.0,44.0,30.32,SSW,207,0.0,0.0,70,0.00,,,0.00,,2013-02-03 05:03:00,
2013-02-02 21:11:00,54.0,44.0,30.32,SSW,207,0.0,0.0,70,0.00,,,0.00,,2013-02-03 05:11:00,
2013-02-02 21:22:00,53.0,43.0,30.32,SSW,207,0.0,0.0,70,0.00,,,0.00,,2013-02-03 05:22:00,
2013-02-02 21:31:00,53.0,44.0,30.32,SSW,206,0.0,0.0,71,0.00,,,0.00,,2013-02-03 05:31:00,
2013-02-02 21:41:00,53.0,44.0,30.32,SSW,206,0.0,0.0,71,0.00,,,0.00,,2013-02-03 05:41:00,
2013-02-02 21:52:00,52.0,43.0,30.32,SSW,206,0.0,0.0,70,0.00,,,0.00,,2013-02-03 05:52:00,
2013-02-02 22:02:00,52.0,43.0,30.32,SSW,207,0.0,0.0,70,0.00,,,0.00,,2013-02-03 06:02:00,
2013-02-02 22:11:00,52.0,43.0,30.32,SSW,207,0.0,0.0,70,0.00,,,0.00,,2013-02-03 06:11:00,
2013-02-02 22:21:00,51.0,41.0,30.32,SSW,207,0.0,0.0,69,0.00,,,0.00,,2013-02-03 06:21:00,
2013-02-02 22:31:00,51.0,42.0,30.32,SSW,208,0.0,1.0,70,0.00,,,0.00,,2013-02-03 06:31:00,
2013-02-02 22:41:00,51.0,42.0,30.32,SSW,208,0.0,1.0,70,0.00,,,0.00,,2013-02-03 06:41:00,
2013-02-02 22:52:00,51.0,41.0,30.32,SSW,210,0.0,1.0,69,0.00,,,0.00,,2013-02-03 06:52:00,
2013-02-02 23:01:00,51.0,42.0,30.32,NNW,330,0.0,0.0,70,0.00,,,0.00,,2013-02-03 07:01:00,
2013-02-02 23:11:00,51.0,42.0,30.32,NNW,330,0.0,0.0,70,0.00,,,0.00,,2013-02-03 07:11:00,
2013-02-02 23:21:00,50.0,40.0,30.32,North,349,0.0,0.0,69,0.00,,,0.00,,2013-02-03 07:21:00,
2013-02-02 23:31:00,50.0,40.0,30.32,North,352,0.0,0.0,69,0.00,,,0.00,,2013-02-03 07:31:00,
2013-02-02 23:41:00,50.0,40.0,30.32,North,352,0.0,0.0,69,0.00,,,0.00,,2013-02-03 07:41:00,
2013-02-02 23:52:00,50.0,40.0,30.32,North,352,0.0,1.0,69,0.00,,,0.00,,2013-02-03 07:52:00,